Location: Sungai Apap
(2.6167°N, 113.3833°E)
Time: 14:51:23
(UTC+00:00)

Palapa 6 Rocket - Pass Details

Date: 25 May 2024
Orbit: 483 x 1187 km, 22.7° (Epoch: 14 June)

Event Time Altitude Azimuth Distance (km) Brightness Sun altitude
Exits shadow 21:16:28 23° 277° (W) 1,069 3.8 -14.6°
Maximum altitude 21:18:37 59° 204° (SSW) 579 2.7 -14.1°
Drops below altitude 10° 21:22:39 10° 124° (ESE) 1,805 5.9 -13.2°
Sets 21:25:06 0° 120° (ESE) 2,789 7.0 -12.6°
